Location: Laterina
(43.5167°N, 11.7167°E)
Time: 03:00:33
(UTC+00:00)

ISS - Visible Passes

Search period start: 19 May 2021 00:00
Search period end: 29 May 2021 00:00
Orbit: 417 x 422 km, 51.6° (Epoch: 18 May)

Date Brightness Start Highest point End Pass type
(mag) Time Alt. Az. Time Alt. Az. Time Alt. Az.
19 May -0.7 00:09:22 10° NW 00:09:22 10° NW 00:09:22 10° NW visible
19 May -1.6 20:07:10 10° W 20:10:09 28° NNW 20:13:08 10° NE visible
19 May -1.1 21:45:07 10° NW 21:47:43 20° N 21:50:16 10° NE visible
19 May -1.2 23:21:58 10° NW 23:23:12 19° NW 23:23:12 19° NW visible
20 May -2.0 19:19:25 10° W 19:22:33 36° NNW 19:25:43 10° NE visible
20 May -1.1 20:57:27 10° NW 21:00:02 20° N 21:02:37 10° NE visible
20 May -1.7 22:34:33 10° NW 22:37:06 28° N 22:37:06 28° N visible
21 May -1.1 20:09:42 10° WNW 20:12:21 21° N 20:15:01 10° NE visible
21 May -1.6 21:47:06 10° NW 21:49:57 24° NNE 21:51:03 21° NE visible
21 May -0.8 23:23:44 10° WNW 23:23:59 12° WNW 23:23:59 12° WNW visible
22 May -1.3 19:21:54 10° WNW 19:24:42 23° NNW 19:27:30 10° NE visible
22 May -1.3 20:59:36 10° NW 21:02:18 22° N 21:04:59 10° ENE visible
22 May -1.7 22:36:18 10° NW 22:37:58 26° NW 22:37:58 26° NW visible
23 May -1.2 20:12:01 10° NW 20:14:36 20° N 20:17:13 10° NE visible
23 May -2.5 21:48:52 10° NW 21:51:59 39° NNE 21:51:59 39° NNE visible
24 May -1.2 19:24:21 10° NW 19:26:56 20° N 19:29:31 10° NE visible
24 May -2.0 21:01:27 10° NW 21:04:29 30° NNE 21:06:01 20° ENE visible
24 May -1.2 22:38:08 10° WNW 22:38:57 16° WNW 22:38:57 16° WNW visible
25 May -1.7 20:13:59 10° NW 20:16:50 24° NNE 20:19:40 10° ENE visible
25 May -2.7 21:50:37 10° WNW 21:53:00 43° NW 21:53:00 43° NW visible
26 May -1.5 19:26:29 10° NW 19:29:10 22° N 19:31:51 10° ENE visible
26 May -3.3 21:03:09 10° NW 21:06:29 56° NNE 21:07:05 47° ENE visible
27 May -2.6 20:15:43 10° NW 20:18:56 39° NNE 20:21:12 17° E visible
27 May -1.8 21:52:36 10° WNW 21:54:09 22° W 21:54:09 22° W visible
28 May -2.1 19:28:17 10° NW 19:31:19 30° NNE 19:34:20 10° E visible
28 May -3.6 21:04:58 10° WNW 21:08:17 58° SW 21:08:17 58° SW visible
